Weather History for New York JFK, NY

Change the Weather History Date:

Tuesday, February 19, 2013

  Actual Average Record
Temperature  
Mean Temperature 38 °F 36 °F  
Max Temperature 45 °F 43 °F 66 °F (1997)
Min Temperature 31 °F 29 °F 11 °F (1959)
Degree Days  
Heating Degree Days 27 29  
Month to date heating degree days 620 586  
Since 1 July heating degree days 3090 3256  
Cooling Degree Days 0 0  
Month to date cooling degree days 0 0  
Year to date cooling degree days 0 0  
Moisture  
Dew Point 32 °F    
Average Humidity 73    
Maximum Humidity 96    
Minimum Humidity 49    
Precipitation  
Precipitation 0.13 in 0.09 in 1.52 in (1972)
Month to date precipitation 1.62 1.70  
Year to date precipitation 4.01 4.86  
Snow  
Snow 0.00 in 0.30 in 10.20 in (1979)
Month to date snowfall 7.4 5.8  
Since 1 July snowfall 13.2 17.0  
Snow Depth 0.00 in    
Sea Level Pressure  
Sea Level Pressure 29.92 in    
Wind  
Wind Speed 15 mph (SSW)    
Max Wind Speed 30 mph    
Max Gust Speed 39 mph    
Visibility 10 miles    
Events Rain    
T = Trace of Precipitation, MM = Missing Value Source: NWS Daily Summary

Daily Weather History Graph

Daily Weather History Graph

Search for Another Location

Airport:

Trip Planner

Search our weather history database for the weather conditions in past years. The results will help you decide how hot, cold, wet, or windy it might be!

Date:

Astronomy

Feb. 19, 2013 Rise Set
Actual Time 6:43 AM EST 5:35 PM EST
Civil Twilight 6:15 AM EST 6:02 PM EST
Nautical Twilight 5:43 AM EST 6:34 PM EST
Astronomical Twilight 5:11 AM EST 7:06 PM EST
Moon 12:03 PM EST (2/19) 2:13 AM EST (2/19)
Length of Visible Light 11h 47m
Length of Day
10h 51m
Waxing Gibbous, 67% of the Moon is Illuminated
Feb 19
Waxing Gibbous
Feb 25
Full
Mar 4
Last Quarter
Mar 11
New
Mar 19
First Quarter

Hourly Weather History & Observations

Time (EST) Temp. Windchill Dew Point Humidity Pressure Visibility Wind Dir Wind Speed Gust Speed Precip Events Conditions
12:51 AM 32.0 °F 24.2 °F 16.0 °F 52% 30.22 in 10.0 mi SSW 9.2 mph - N/A   Mostly Cloudy
1:51 AM 32.0 °F 23.6 °F 16.0 °F 52% 30.21 in 10.0 mi SSW 10.4 mph - N/A   Mostly Cloudy
2:51 AM 30.9 °F 22.2 °F 18.0 °F 59% 30.17 in 10.0 mi SSW 10.4 mph - N/A   Scattered Clouds
3:51 AM 35.1 °F 26.9 °F 23.0 °F 61% 30.15 in 10.0 mi SSW 11.5 mph - N/A   Scattered Clouds
4:51 AM 30.9 °F 23.5 °F 23.0 °F 72% 30.15 in 10.0 mi SW 8.1 mph - N/A   Scattered Clouds
5:51 AM 34.0 °F 26.6 °F 27.0 °F 75% 30.11 in 10.0 mi SSW 9.2 mph - N/A   Partly Cloudy
6:51 AM 36.0 °F 28.0 °F 27.0 °F 70% 30.09 in 10.0 mi SSW 11.5 mph - N/A   Partly Cloudy
7:51 AM 39.9 °F 32.1 °F 30.9 °F 70% 30.09 in 10.0 mi South 13.8 mph - N/A   Mostly Cloudy
8:51 AM 41.0 °F 33.1 °F 30.9 °F 67% 30.07 in 10.0 mi South 15.0 mph - N/A   Mostly Cloudy
9:51 AM 42.1 °F 34.2 °F 32.0 °F 67% 30.04 in 10.0 mi South 16.1 mph - N/A   Mostly Cloudy
10:51 AM 44.1 °F 35.4 °F 33.1 °F 65% 30.01 in 10.0 mi South 21.9 mph 26.5 mph N/A   Mostly Cloudy
11:51 AM 45.0 °F 36.9 °F 35.1 °F 68% 29.98 in 10.0 mi South 20.7 mph 27.6 mph N/A   Overcast
12:51 PM 44.6 °F 36.1 °F 35.6 °F 71% 29.95 in 10.0 mi South 21.9 mph 29.9 mph N/A Rain Light Rain
1:51 PM 42.1 °F 34.9 °F 37.9 °F 85% 29.89 in 10.0 mi South 13.8 mph - 0.02 in Rain Light Rain
2:51 PM 42.1 °F 33.1 °F 39.0 °F 89% 29.86 in 9.0 mi South 20.7 mph - 0.01 in Rain Light Rain
3:51 PM 42.1 °F 33.9 °F 39.9 °F 92% 29.78 in 8.0 mi South 17.3 mph - 0.03 in Rain Light Rain
4:51 PM 43.0 °F 34.0 °F 41.0 °F 93% 29.75 in 8.0 mi South 21.9 mph 29.9 mph 0.01 in Rain Light Rain
5:38 PM 42.8 °F 34.3 °F 41.0 °F 93% 29.74 in 7.0 mi SSW 19.6 mph - 0.02 in Rain Light Rain
5:51 PM 42.1 °F 33.9 °F 39.9 °F 92% 29.74 in 7.0 mi SSW 17.3 mph - 0.02 in Rain Light Rain
6:16 PM 42.8 °F 37.5 °F 39.2 °F 87% 29.73 in 7.0 mi SSW 9.2 mph - 0.01 in Rain Light Rain
7:48 PM 42.8 °F 38.0 °F 41.0 °F 93% 29.69 in 10.0 mi WSW 8.1 mph - 0.02 in   Mostly Cloudy
7:51 PM 42.1 °F 36.1 °F 41.0 °F 96% 29.69 in 10.0 mi WSW 10.4 mph - 0.02 in   Mostly Cloudy
8:13 PM 42.8 °F 36.6 °F 41.0 °F 93% 29.70 in 10.0 mi WSW 11.5 mph - N/A   Overcast
8:51 PM 44.1 °F 36.2 °F 41.0 °F 89% 29.69 in 10.0 mi West 18.4 mph 27.6 mph 0.00 in Rain Light Rain
9:51 PM 44.1 °F 35.7 °F 37.9 °F 79% 29.70 in 10.0 mi West 20.7 mph 26.5 mph 0.00 in   Overcast
10:23 PM 42.8 °F 35.4 °F 33.8 °F 70% 29.71 in 10.0 mi West 15.0 mph 25.3 mph N/A   Overcast
10:51 PM 42.1 °F 33.3 °F 30.0 °F 62% 29.72 in 10.0 mi West 19.6 mph 27.6 mph N/A   Mostly Cloudy
11:51 PM 39.0 °F 28.8 °F 26.1 °F 60% 29.73 in 10.0 mi West 21.9 mph 31.1 mph N/A   Scattered Clouds